Date,TemperatureHighF,TemperatureAvgF,TemperatureLowF,DewpointHighF,DewpointAvgF,DewpointLowF,HumidityHigh,HumidityAvg,HumidityLow,PressureMaxIn,PressureMinIn,WindSpeedMaxMPH,WindSpeedAvgMPH,GustSpeedMaxMPH,PrecipitationSumIn
2013-1-1,34.9,19.2,10.6,16.3,8.1,1.6,80,63,42,30.33,30.21,8,2,8,0.00
2013-1-2,38.2,23.9,12.8,23.1,15.6,4.2,83,71,53,30.24,30.10,13,4,13,0.00
2013-1-3,40.1,28.9,17.1,28.9,21.3,10.2,85,74,51,30.42,30.23,15,4,15,0.00
2013-1-4,46.8,29.9,16.0,26.6,21.0,9.8,90,71,44,30.40,30.24,16,4,16,0.00
2013-1-5,45.9,34.8,28.8,33.2,27.5,22.5,86,75,60,30.24,30.05,18,6,18,0.00
2013-1-6,47.2,31.5,20.3,23.2,19.8,15.3,82,63,36,30.38,30.18,15,5,15,0.00
2013-1-7,48.6,37.0,26.6,27.2,23.8,19.0,75,60,39,30.28,30.05,20,6,20,0.00
2013-1-8,56.2,42.8,35.6,33.2,30.4,26.8,77,63,40,30.21,29.98,19,6,19,0.00
2013-1-9,67.5,40.6,29.0,42.7,28.2,22.5,79,64,26,30.46,30.21,8,2,8,0.00
2013-1-10,44.1,40.4,37.1,42.8,35.8,23.2,95,85,46,30.39,29.77,18,6,18,0.20
2013-1-11,58.1,51.8,43.6,48.2,45.2,27.1,96,79,38,29.79,29.59,22,8,22,0.01
2013-1-12,52.4,29.4,20.0,34.4,18.1,10.4,80,63,38,30.15,29.74,22,7,22,0.00
2013-1-13,32.9,20.3,13.9,12.4,8.2,4.8,72,60,40,30.36,30.09,15,6,15,0.00
2013-1-14,47.2,24.8,11.5,17.6,9.3,4.1,73,54,25,30.54,30.35,8,1,8,0.00
2013-1-15,43.6,26.9,15.5,19.4,10.7,7.6,74,53,28,30.43,30.18,8,1,8,0.00
2013-1-16,53.8,34.3,20.5,33.2,21.7,10.9,75,61,44,30.23,30.03,14,5,14,0.00
2013-1-17,58.5,39.0,26.3,31.0,25.0,20.5,83,60,31,30.51,30.23,10,2,10,0.00
2013-1-18,60.7,44.6,31.0,32.8,29.3,23.4,80,57,34,30.40,30.03,26,9,26,0.00
2013-1-19,65.5,47.4,37.3,33.5,30.0,24.2,75,53,26,30.30,29.97,19,7,19,0.00
2013-1-20,40.7,28.4,18.4,24.5,10.2,6.8,69,48,29,30.42,30.30,13,4,13,0.00
2013-1-21,18.9,16.6,14.9,9.7,1.7,-6.7,74,53,36,30.48,30.40,11,4,12,0.00
2013-1-22,33.5,21.1,14.0,9.8,4.7,-1.8,67,49,35,30.46,30.30,9,3,9,0.00
2013-1-23,56.2,29.6,15.1,24.5,13.9,6.2,71,54,29,30.48,30.22,13,4,15,0.00
2013-1-24,24.3,17.5,7.9,9.3,3.3,-1.8,66,54,43,30.57,30.21,17,7,17,0.00
2013-1-25,54.0,34.1,18.4,23.4,15.7,8.5,68,48,29,30.28,30.17,11,2,11,0.00
2013-1-26,49.0,34.3,22.1,24.4,21.0,15.4,79,59,38,30.34,30.13,14,6,14,0.00
2013-1-27,57.2,44.7,34.9,52.9,41.0,22.6,96,87,57,30.14,29.78,18,7,18,0.11
2013-1-28,74.9,58.4,45.0,60.1,51.3,42.4,93,79,49,29.93,29.69,22,6,22,0.00
2013-1-29,67.3,46.2,33.8,61.0,42.3,31.7,92,86,74,29.72,29.52,21,6,21,0.28
2013-1-30,34.4,26.5,18.9,31.8,21.5,12.3,93,82,69,29.98,29.55,24,10,24,0.01
2013-1-31,22.3,16.0,5.8,15.8,6.5,-3.2,80,66,49,30.48,29.97,21,7,21,0.00
2013-2-1,25.9,15.6,1.4,15.7,5.2,-5.3,76,64,47,30.47,30.15,13,4,13,0.00
2013-2-2,47.0,32.6,23.6,32.6,24.5,15.1,82,72,56,30.23,30.08,13,4,13,0.01
2013-2-3,48.2,38.6,29.0,30.1,23.5,16.1,78,57,31,30.29,29.89,16,5,16,0.00
2013-2-4,41.6,33.1,23.6,30.7,24.3,17.7,79,70,59,30.03,29.83,13,3,13,0.00
2013-2-5,64.8,40.0,23.0,36.5,26.9,17.2,87,64,29,30.15,29.93,17,4,17,0.00
2013-2-6,61.2,48.7,30.1,39.1,33.6,22.1,81,57,40,30.15,29.92,16,7,16,0.00
2013-2-7,49.7,42.8,33.8,42.8,36.3,27.0,89,78,64,30.25,29.91,16,6,16,0.01
2013-2-8,47.9,34.4,30.1,31.2,26.7,25.0,84,74,49,30.39,30.24,16,3,16,0.00
2013-2-9,48.2,37.5,29.3,35.2,30.4,25.8,90,76,57,30.27,29.81,17,9,17,0.00
2013-2-10,55.1,43.3,34.9,45.6,34.3,23.8,95,72,46,29.88,29.46,29,14,29,0.05
2013-2-11,53.3,39.2,29.7,28.5,24.7,19.8,78,58,36,30.20,29.88,28,8,28,0.00
2013-2-12,46.8,33.7,22.0,30.1,22.3,15.4,78,64,41,30.22,29.97,8,1,8,0.00
2013-2-13,63.0,41.7,25.2,31.1,24.6,18.8,80,54,25,29.98,29.82,12,3,12,0.00
2013-2-14,56.3,42.9,35.5,33.3,27.4,21.3,76,56,38,30.20,29.84,17,6,17,0.00
2013-2-15,43.9,31.2,19.8,28.4,15.4,10.9,75,53,33,30.42,30.20,19,5,19,0.00
2013-2-16,40.0,29.1,17.5,22.0,16.8,9.8,78,61,42,30.34,30.10,13,3,13,0.00
2013-2-17,58.0,42.2,27.0,32.8,26.4,19.1,77,56,37,30.10,29.70,18,6,18,0.00
2013-2-18,52.9,39.3,25.0,43.0,28.7,14.0,83,66,53,30.09,29.60,22,8,22,0.09
2013-2-19,35.5,23.4,16.9,15.9,11.6,7.3,75,62,32,30.34,30.09,22,11,22,0.00
2013-2-20,24.8,21.4,12.4,11.6,8.5,3.5,68,57,49,30.45,30.25,17,7,17,0.00
2013-2-21,24.7,22.2,20.0,21.4,17.4,10.9,90,82,63,30.28,29.82,30,10,30,0.00
2013-2-22,36.2,25.2,15.5,22.4,17.8,8.7,89,75,52,30.10,29.82,15,5,15,0.00
2013-2-23,43.2,24.6,7.6,21.6,13.0,0.1,79,63,40,30.09,29.96,10,2,10,0.01
2013-2-24,53.8,34.1,15.5,28.0,20.5,8.3,77,59,36,30.08,29.98,12,2,12,0.00
2013-2-25,38.7,34.9,29.7,29.2,26.5,23.1,78,71,64,30.05,29.79,15,7,15,0.00
2013-2-26,35.3,33.0,30.6,31.6,29.7,27.8,94,88,77,29.89,29.66,21,8,21,0.10
2013-2-27,34.4,31.4,27.7,28.3,26.5,24.7,92,82,70,30.06,29.86,18,9,18,0.04
2013-2-28,38.2,31.6,27.2,27.2,24.6,22.1,83,76,63,30.23,30.06,16,7,16,0.00
2013-3-1,39.6,30.8,26.8,25.5,22.8,18.8,79,72,51,30.35,30.20,11,5,11,0.00
2013-3-2,50.9,33.0,24.3,25.3,18.7,15.9,72,57,33,30.38,30.21,10,3,10,0.01
2013-3-3,46.3,33.7,23.9,26.8,21.8,16.2,76,62,45,30.21,29.83,20,7,20,0.00
2013-3-4,53.8,40.0,33.8,35.3,28.7,24.3,86,65,46,30.00,29.76,21,6,21,0.04
2013-3-5,36.0,31.7,27.7,32.0,22.4,17.8,89,69,59,30.36,29.99,28,12,28,0.01
2013-3-6,52.9,33.9,21.4,28.5,20.4,14.7,76,59,34,30.46,30.32,13,3,13,0.00
2013-3-7,50.8,34.5,21.1,29.6,23.3,15.8,80,65,43,30.35,30.21,15,6,15,0.00
2013-3-8,53.6,40.9,31.5,37.4,31.5,25.1,82,70,50,30.27,30.03,19,7,19,0.00
2013-3-9,50.8,44.1,40.7,49.6,41.6,35.8,96,91,79,30.04,29.65,17,7,17,0.99
2013-3-10,50.6,39.1,29.5,49.1,37.0,25.8,96,92,85,29.90,29.60,18,5,18,0.02
2013-3-11,39.6,30.0,25.9,26.8,23.5,21.8,86,77,55,30.04,29.87,17,8,17,0.00
2013-3-12,46.1,33.9,26.5,29.9,23.9,18.7,83,68,48,30.34,30.03,20,7,20,0.00
2013-3-13,50.6,35.7,23.0,26.8,21.5,17.2,79,58,38,30.50,30.34,12,3,13,0.00
2013-3-14,81.4,52.3,34.6,44.8,32.7,23.0,68,50,25,30.35,30.10,12,4,12,0.00
2013-3-15,83.5,57.9,36.0,46.4,37.4,28.0,80,51,23,30.14,29.71,18,4,18,0.00
2013-3-16,54.7,41.3,36.0,42.8,32.1,26.4,82,70,58,30.15,29.78,17,6,17,0.00
2013-3-17,41.2,34.4,29.3,30.9,27.0,22.4,89,74,60,30.13,29.82,20,9,20,0.00
2013-3-18,56.5,41.3,29.0,37.3,27.1,15.0,92,62,29,30.10,29.80,26,8,26,0.02
2013-3-19,47.2,37.3,29.2,31.3,20.9,12.7,85,54,27,30.28,30.09,13,3,13,0.00
2013-3-20,47.3,32.8,20.9,29.5,12.5,4.3,86,47,20,30.42,30.17,21,6,21,0.00
2013-3-21,32.4,27.6,21.8,19.1,13.5,8.5,64,55,45,30.17,29.97,13,5,13,0.00
2013-3-22,39.8,34.0,31.0,26.9,21.8,18.3,73,61,51,30.07,29.99,11,4,11,0.00
2013-3-23,42.8,35.7,30.6,30.7,26.2,22.3,92,69,48,30.10,29.95,16,5,16,0.01
2013-3-24,31.1,29.8,27.7,28.9,27.8,25.8,93,92,90,29.99,29.91,0,0,0,0.00
2013-3-25,37.3,32.2,27.0,28.6,24.6,20.8,90,74,62,30.34,30.13,19,9,19,0.04
2013-3-26,47.9,33.9,22.3,28.4,22.4,17.5,83,64,41,30.43,30.32,9,4,9,0.00
2013-3-27,49.5,37.3,27.2,34.3,27.0,20.3,76,67,52,30.36,30.25,16,5,16,0.00
2013-3-28,69.8,49.6,33.8,41.8,35.1,28.3,82,60,34,30.29,30.18,13,4,13,0.00
2013-3-29,72.0,54.9,38.5,42.6,35.4,31.2,81,53,24,30.28,30.15,15,6,15,0.00
2013-3-30,73.1,53.7,48.1,61.2,46.6,35.6,94,78,53,30.15,29.92,14,4,14,0.58
2013-3-31,72.2,56.2,44.5,49.1,39.5,27.1,92,59,24,30.08,29.97,18,5,18,0.00
2013-4-1,60.8,43.5,30.4,33.2,23.0,16.5,81,48,22,30.34,30.08,17,5,17,0.00
2013-4-2,64.3,43.3,25.7,26.6,20.7,16.0,68,44,21,30.39,30.29,10,2,10,0.00
2013-4-3,63.4,44.3,32.0,29.8,24.3,21.8,68,47,27,30.42,30.28,14,4,14,0.00
2013-4-4,74.5,52.6,33.8,36.2,29.3,22.4,68,44,22,30.29,30.10,10,2,10,0.00
2013-4-5,71.5,56.0,40.3,42.8,37.7,31.1,74,52,33,30.23,29.90,15,6,15,0.00
2013-4-6,76.9,62.8,54.4,50.3,43.0,37.6,60,49,30,29.90,29.69,26,9,26,0.00
2013-4-7,75.1,60.0,44.3,53.4,43.7,35.8,91,57,32,29.93,29.71,22,4,22,0.32
2013-4-8,76.0,63.0,51.5,63.4,57.0,48.9,93,82,64,29.83,29.71,22,4,22,0.45
2013-4-9,78.5,68.4,53.3,63.0,59.8,49.8,88,74,58,29.83,29.72,19,8,19,0.27
2013-4-10,53.3,43.6,39.4,49.8,41.4,37.5,94,92,87,29.98,29.77,23,7,23,1.01
2013-4-11,39.4,36.5,34.0,37.6,31.2,27.8,94,82,67,29.82,29.74,18,9,18,0.00
2013-4-12,50.9,39.4,33.5,36.1,31.1,27.1,83,72,54,30.07,29.78,18,8,18,0.00
2013-4-13,60.1,45.6,30.6,40.7,33.9,25.5,84,65,45,30.10,29.77,17,5,17,0.00
2013-4-14,72.7,60.4,47.0,54.4,46.6,35.4,76,61,48,29.77,29.53,30,9,30,0.00
2013-4-15,54.2,48.6,44.3,36.9,33.6,30.1,66,56,43,30.07,29.76,12,4,12,0.00
2013-4-16,49.7,44.3,39.2,35.7,32.5,28.9,74,63,52,30.23,30.06,16,7,16,0.00
2013-4-17,49.0,46.1,44.3,47.6,42.6,35.6,95,88,68,30.15,29.71,19,7,19,1.46
2013-4-18,44.5,39.6,35.3,42.8,35.9,27.9,94,87,73,29.94,29.61,25,10,25,0.26
2013-4-19,53.3,38.9,31.9,30.4,27.6,24.4,80,66,37,30.01,29.90,22,13,22,0.00
2013-4-22,69.1,58.4,45.7,49.8,45.2,40.7,89,64,41,30.14,29.97,16,6,16,0.10
2013-4-23,45.9,37.9,33.3,41.1,33.1,29.8,91,83,71,30.20,30.08,15,6,15,0.28
2013-4-24,57.6,44.3,29.0,35.0,29.4,23.9,83,58,34,30.28,30.17,15,6,15,0.00
2013-4-25,70.6,55.0,35.1,41.0,35.6,27.3,81,51,27,30.34,30.18,13,4,13,0.00
2013-4-26,58.0,53.6,49.9,49.7,45.4,39.9,88,74,53,30.27,30.18,14,6,14,0.03
2013-4-27,60.8,52.3,47.5,49.9,46.5,41.9,89,81,66,30.26,30.05,8,3,8,0.00
2013-4-28,77.6,59.6,40.0,54.7,47.9,36.1,90,68,42,30.06,29.84,13,4,13,0.01
2013-4-29,86.0,70.8,56.0,63.7,57.8,50.5,84,65,44,29.86,29.68,16,6,16,0.00
2013-4-30,86.0,75.6,67.7,57.9,53.6,49.1,62,47,32,29.88,29.69,24,9,24,0.00
2013-5-1,82.3,64.3,42.1,56.1,48.3,36.7,85,58,39,30.31,29.87,19,7,19,0.05
2013-5-2,42.7,37.3,33.5,38.5,34.8,31.3,93,91,85,30.44,30.23,19,7,19,1.32
2013-5-3,38.5,36.2,34.7,35.6,33.2,32.0,92,89,86,30.35,29.95,13,5,13,0.31
2013-5-4,57.6,44.5,34.9,47.8,41.1,32.3,94,88,67,30.08,29.88,12,4,12,0.18
2013-5-5,59.4,51.4,46.3,52.0,47.4,43.8,91,86,74,30.16,30.07,10,4,10,0.00
2013-5-6,79.6,59.6,50.9,60.1,52.2,48.1,91,78,48,30.16,30.07,9,3,9,0.00
2013-5-7,82.1,65.2,47.5,60.6,50.1,43.8,91,62,29,30.14,30.02,9,2,9,0.00
2013-5-8,77.0,65.4,53.6,59.6,54.1,46.3,85,68,51,30.05,29.95,14,4,14,0.02
2013-5-9,75.6,64.2,58.7,63.8,58.0,53.1,93,81,62,30.00,29.88,13,4,13,0.00
2013-5-10,74.0,60.8,53.6,55.6,51.8,46.6,87,73,50,30.10,29.97,10,4,10,0.00
2013-5-11,72.7,58.9,45.4,47.0,36.7,28.3,83,49,22,30.28,30.07,21,5,21,0.00
2013-5-12,78.1,55.9,37.1,38.4,32.3,28.2,73,45,19,30.32,30.17,10,2,10,0.00
2013-5-13,79.2,60.1,47.0,55.0,43.4,35.7,71,56,33,30.20,29.96,10,3,10,0.00
2013-5-14,95.4,78.3,62.1,57.5,53.0,45.7,74,46,21,29.96,29.81,21,7,21,0.00
2013-5-15,93.1,78.2,65.3,65.3,59.0,50.4,75,53,36,29.95,29.84,11,4,11,0.00
2013-5-16,85.5,74.5,63.7,64.5,61.6,59.1,86,66,45,29.95,29.86,10,4,10,0.00
2013-5-17,81.7,70.4,61.7,63.4,59.9,56.3,85,71,49,30.00,29.92,7,3,7,0.00
2013-5-18,86.8,75.2,62.1,68.4,63.1,55.8,84,67,50,29.98,29.80,11,5,11,0.00
2013-5-19,85.3,72.1,63.2,70.7,63.3,57.8,87,75,57,29.91,29.61,25,6,25,0.32
2013-5-20,81.5,70.6,61.9,67.7,61.4,54.9,90,74,53,29.79,29.65,16,5,16,0.00
2013-5-21,77.2,66.8,57.6,55.2,51.8,46.7,80,60,42,29.81,29.71,17,6,17,0.00
2013-5-22,67.7,60.4,54.4,53.8,50.4,48.0,81,70,59,29.99,29.77,16,6,16,0.00
2013-5-23,75.6,61.3,53.3,56.7,50.7,45.5,81,69,48,30.27,29.98,12,4,12,0.00
2013-5-24,74.0,61.1,46.1,54.2,47.0,41.5,89,63,35,30.37,30.18,18,6,18,0.00
2013-5-25,84.6,70.9,60.8,66.5,57.4,44.7,79,63,51,30.22,30.05,14,5,14,0.00
2013-5-26,85.0,74.9,66.2,69.6,65.9,61.6,89,74,57,30.11,29.93,13,5,13,0.00
2013-5-27,78.1,69.4,60.1,68.2,62.7,57.5,94,80,65,30.03,29.71,21,7,21,1.37
2013-5-28,70.4,70.1,70.0,66.2,66.2,66.0,88,87,87,29.72,29.69,12,6,12,0.00
2013-8-9,85.3,77.8,69.3,68.2,66.4,64.3,84,69,54,30.17,30.09,5,0,5,0.00
2013-8-10,93.4,75.9,65.0,65.1,61.6,56.4,85,64,35,30.26,30.13,11,3,11,0.00
2013-8-11,94.5,76.1,63.5,69.1,63.7,57.2,83,67,42,30.19,30.05,8,2,8,0.00
2013-8-12,92.5,76.4,70.0,73.4,67.5,63.7,89,75,52,30.10,30.01,10,1,10,0.03
2013-8-13,91.8,75.7,66.2,64.6,58.9,53.9,83,59,29,30.19,30.08,10,3,10,0.00
2013-8-14,86.6,70.5,59.8,58.8,55.6,53.1,80,61,35,30.26,30.14,11,2,11,0.00
2013-8-15,70.7,65.8,63.2,62.1,57.8,54.4,87,75,67,30.18,30.09,11,3,11,0.16
2013-8-16,82.4,68.8,61.9,58.8,56.2,53.8,81,66,39,30.22,30.14,9,3,9,0.01
2013-8-17,85.9,69.1,55.4,59.3,54.9,49.1,83,63,37,30.25,30.15,12,2,12,0.00
2013-8-18,86.8,70.9,56.9,61.8,57.6,50.8,82,65,40,30.23,30.12,10,2,10,0.00
2013-8-19,89.3,74.7,61.4,66.3,62.0,55.7,87,67,42,30.16,30.05,11,2,11,0.00
2013-8-20,92.9,78.5,67.0,68.3,64.9,61.3,83,65,40,30.11,30.03,12,3,12,0.00
2013-8-21,95.2,80.2,68.6,69.9,66.6,63.1,84,66,40,30.12,30.04,11,2,11,0.00
2013-8-22,92.0,79.8,70.9,72.2,68.6,65.4,85,70,47,30.14,30.07,7,1,7,0.00
2013-8-23,94.3,80.7,69.7,73.0,67.8,63.9,84,67,44,30.15,30.06,12,2,12,0.00
2013-8-24,94.9,80.8,72.9,73.5,69.6,66.4,84,70,46,30.18,30.09,13,4,13,0.00
2013-8-26,98.8,88.4,73.8,72.8,70.4,67.6,84,57,40,30.20,30.08,13,5,13,0.00
2013-8-27,99.2,84.4,72.5,70.2,68.1,64.1,85,61,36,30.10,30.01,16,5,16,0.00
2013-8-28,100.3,83.3,70.2,71.5,67.5,61.1,81,61,34,30.10,30.03,14,3,14,0.00
2013-8-29,100.4,85.0,72.4,74.3,70.6,65.9,82,64,38,30.09,29.98,10,2,10,0.00
2013-8-30,104.8,87.5,76.5,72.7,70.1,67.0,77,58,30,30.00,29.87,12,2,12,0.00
2013-8-31,95.2,81.9,73.8,76.2,71.6,67.7,82,71,52,29.94,29.84,10,2,10,0.00
2013-9-1,86.0,72.2,67.1,72.3,67.0,64.4,94,84,57,30.01,29.82,17,3,17,0.78
2013-9-2,69.5,69.5,69.5,59.2,59.2,59.2,70,70,70,30.02,30.02,2,2,2,0.00
2013-9-3,97.2,79.1,60.7,61.3,58.1,54.2,79,52,30,30.16,30.08,6,2,6,0.00
2013-9-4,92.2,75.9,60.1,64.5,60.1,54.0,81,61,35,30.23,30.10,6,1,6,0.00
2013-9-5,94.0,76.2,63.0,64.8,60.4,56.7,83,61,33,30.26,30.16,10,1,10,0.00
2013-9-6,94.3,77.5,66.4,65.7,62.6,57.8,80,62,38,30.18,30.03,9,3,9,0.00
2013-9-7,103.0,83.9,70.4,71.0,66.5,61.6,76,58,34,30.05,29.91,13,3,13,0.00
2013-9-8,101.5,84.2,74.0,73.7,69.7,66.7,79,63,39,29.96,29.85,10,2,10,0.00
2013-9-9,86.8,78.0,74.0,67.4,66.1,65.2,74,67,51,29.96,29.90,11,3,11,0.00
2013-9-10,99.0,88.7,74.0,67.6,65.2,63.1,73,47,33,30.10,30.02,16,6,16,0.00
2013-9-11,96.8,81.2,69.8,69.8,65.8,61.0,83,61,39,30.16,30.08,15,3,15,0.05
2013-9-12,99.9,79.1,68.2,71.3,61.6,47.4,89,61,23,30.21,30.11,11,3,11,0.19
2013-9-13,91.1,69.8,58.0,52.5,48.6,45.3,70,50,23,30.26,30.12,10,3,10,0.00
2013-9-14,60.3,60.1,59.9,47.3,46.9,46.3,62,61,60,30.14,30.13,2,2,2,0.00
2013-9-16,65.0,62.6,58.3,57.9,56.0,54.5,87,79,74,30.33,30.23,14,5,14,0.10
2013-9-17,78.7,65.5,59.0,68.0,61.0,56.2,90,86,68,30.25,30.01,13,5,13,0.09
2013-9-18,91.1,77.5,66.6,71.7,67.7,63.2,90,74,48,30.03,29.86,17,5,17,0.01
2013-9-19,94.9,77.4,66.6,70.6,67.1,63.2,89,73,43,29.97,29.78,22,6,22,1.05
2013-9-20,82.8,65.4,55.4,63.0,52.6,48.0,89,66,34,30.10,29.94,14,4,14,0.01
2013-9-21,91.1,64.1,47.0,55.0,48.2,41.9,84,61,26,30.09,29.96,7,1,7,0.00
2013-9-22,82.6,65.8,52.9,55.1,51.2,47.6,82,62,37,30.04,29.92,15,3,15,0.00
2013-9-23,80.5,66.2,54.2,55.4,51.6,48.7,84,62,35,30.00,29.84,20,6,20,0.00
2013-9-24,79.6,67.4,60.3,64.2,57.2,53.3,82,70,54,29.91,29.81,11,3,11,0.00
2013-9-25,87.1,70.1,58.0,64.4,58.5,53.6,86,69,41,29.96,29.87,11,3,11,0.00
2013-9-26,87.5,72.8,61.9,63.0,60.5,58.4,88,68,41,29.97,29.90,17,6,17,0.00
2013-9-27,89.1,75.6,66.6,65.5,62.7,61.2,83,66,43,30.03,29.91,14,6,14,0.00
2013-9-28,76.0,65.0,51.5,63.2,57.3,46.4,90,77,50,30.13,29.85,18,4,18,0.01
2013-9-29,83.0,61.8,44.6,53.8,46.3,39.8,88,63,29,30.15,30.01,8,2,8,0.00
2013-9-30,83.2,70.1,49.5,60.7,56.1,44.8,86,64,40,29.96,29.87,11,3,11,0.00
2013-10-1,90.2,71.5,58.0,64.5,59.4,53.6,89,69,41,30.02,29.89,11,2,11,0.00
2013-10-2,88.6,73.3,62.1,70.7,63.6,55.6,87,73,48,30.06,29.92,10,3,11,0.00
2013-10-3,86.2,73.7,63.4,72.2,66.6,60.1,90,79,61,29.98,29.78,15,4,15,0.01
2013-10-4,88.9,76.6,66.1,72.5,67.6,62.6,89,75,50,29.95,29.78,15,5,15,0.01
2013-10-5,66.2,56.0,47.0,62.8,40.9,34.8,89,58,37,30.05,29.92,17,7,17,0.00
2013-10-6,55.6,48.8,43.7,46.2,41.3,35.0,85,75,63,30.03,29.86,20,8,20,0.01
2013-10-7,82.6,58.6,41.2,47.4,43.4,36.9,88,62,26,30.17,30.02,11,3,11,0.00
2013-10-8,79.4,63.0,49.0,51.8,47.1,43.4,82,59,33,30.14,30.05,16,4,16,0.00
2013-10-9,80.3,64.5,53.5,53.1,49.4,46.0,79,60,36,30.15,30.06,13,4,13,0.00
2013-10-10,81.7,65.2,50.4,58.2,51.5,44.9,85,63,40,30.11,29.92,12,4,12,0.00
2013-10-11,72.0,63.3,58.1,63.3,56.2,51.8,85,78,70,29.94,29.82,16,6,16,0.00
2013-10-14,70.9,62.3,51.5,57.4,48.1,35.0,89,62,37,30.26,29.90,21,8,21,0.01
2013-10-15,65.0,55.9,49.1,57.0,44.9,38.2,90,68,43,30.11,29.89,19,8,19,0.00
2013-10-16,60.1,51.1,46.6,43.3,40.6,37.8,77,67,52,30.12,30.03,14,5,14,0.00
2013-10-17,70.9,54.7,42.1,44.2,40.2,35.1,84,62,29,30.05,29.92,17,4,17,0.00
2013-10-18,47.5,41.5,37.1,39.6,35.6,32.9,90,80,68,30.18,30.05,10,3,10,0.00
2013-10-19,68.0,48.1,33.8,40.1,35.1,31.4,92,66,30,30.11,29.90,16,4,16,0.00
2013-10-20,72.4,55.5,44.3,44.9,40.6,35.5,83,60,35,30.00,29.82,14,4,14,0.00
2013-10-21,64.8,49.2,38.0,39.4,34.0,30.1,82,59,31,30.16,30.00,11,3,11,0.00
2013-10-22,61.0,48.0,37.6,45.9,37.5,29.8,83,68,46,30.15,29.92,23,6,23,0.00
2013-10-23,55.8,41.7,30.6,36.7,32.1,25.9,87,70,44,30.22,30.09,8,2,8,0.00
2013-10-24,61.7,45.0,32.8,36.4,28.7,21.7,80,56,28,30.45,30.21,16,3,16,0.00
2013-10-25,61.6,43.0,26.1,30.9,25.0,18.5,80,53,27,30.48,30.16,14,3,14,0.00
2013-10-26,70.0,50.9,34.9,40.1,32.2,23.4,81,52,25,30.22,30.09,10,3,11,0.00
2013-10-27,67.7,46.2,28.3,34.7,28.6,20.7,79,53,29,30.20,29.96,13,2,13,0.00
2013-10-28,74.7,54.0,37.1,48.2,37.0,27.6,72,54,32,30.21,30.03,11,2,11,0.00
2013-10-29,59.6,54.0,47.2,56.7,48.6,35.1,91,83,50,30.21,29.99,11,4,11,0.01
2013-10-30,65.2,61.9,58.5,62.0,58.9,55.4,91,90,88,30.02,29.73,18,3,18,0.00
2013-10-31,58.3,48.6,43.6,55.3,45.3,40.2,92,89,74,29.76,29.58,12,4,12,0.00
2013-11-1,62.3,48.9,41.4,45.6,40.5,37.4,88,74,49,30.00,29.66,15,6,15,0.00
2013-11-2,68.6,49.2,39.2,42.1,37.3,31.6,85,66,33,30.21,30.00,13,5,13,0.00
2013-11-3,59.2,48.8,37.1,39.8,35.2,30.3,79,61,43,30.19,29.93,22,7,22,0.05
2013-11-4,58.9,54.2,47.9,48.8,45.7,39.8,85,73,60,30.15,29.94,15,4,15,0.01
2013-11-5,59.6,55.1,44.3,56.3,51.6,41.4,91,88,78,30.15,29.88,20,5,20,0.00
2013-11-6,52.4,41.5,35.6,41.4,35.3,30.3,92,79,55,30.34,29.95,19,6,19,0.00
2013-11-7,63.7,42.9,31.3,39.3,29.7,24.0,89,64,25,30.41,30.32,17,3,17,0.02
2013-11-8,67.0,49.7,31.0,37.9,32.1,24.4,78,53,29,30.35,29.89,30,8,30,0.00
2013-11-9,80.1,56.2,41.0,40.6,34.7,31.1,73,48,21,30.35,29.99,16,3,16,0.00
2013-11-10,59.6,48.4,36.5,35.0,31.1,27.8,71,52,35,30.45,30.23,9,2,10,0.00
2013-11-11,55.1,42.9,25.2,48.5,33.0,15.8,82,68,57,30.70,30.18,19,6,19,0.00
2013-11-12,50.8,29.4,17.3,20.2,13.6,10.3,75,55,25,30.89,30.67,12,2,12,0.00
2013-11-13,54.0,36.3,21.2,22.2,15.5,11.3,69,46,20,30.68,30.18,18,6,18,0.00
2013-11-14,58.9,45.9,38.2,30.3,26.2,21.6,57,47,32,30.18,29.98,20,8,20,0.00
2013-11-15,61.2,50.3,41.4,43.5,36.0,28.2,82,59,41,30.00,29.77,15,5,15,0.00
2013-11-16,71.8,60.8,48.8,58.2,53.8,43.5,89,79,60,29.78,29.46,29,9,29,0.01
2013-11-17,66.1,58.6,43.4,59.7,43.1,29.4,83,59,28,30.10,29.35,29,10,29,0.00
2013-11-18,67.7,46.5,35.3,37.4,31.9,27.0,84,60,26,30.32,30.10,11,3,11,0.00
2013-11-19,61.7,47.8,35.6,31.8,27.4,24.4,70,48,25,30.29,30.02,18,6,18,0.00
2013-11-20,50.8,43.7,39.2,38.0,33.1,20.7,85,69,33,30.05,29.91,20,7,20,0.01
2013-11-21,45.7,38.5,28.3,40.9,34.8,24.6,90,87,82,30.47,30.00,12,2,12,0.01
2013-11-22,34.2,27.6,23.4,26.5,22.4,18.2,86,81,71,30.65,30.46,0,0,0,0.00
2013-11-23,33.5,24.0,15.7,18.5,12.4,6.4,81,62,41,30.81,30.61,15,4,15,0.00
2013-11-24,31.1,21.8,12.6,14.6,10.1,6.0,77,61,42,30.77,30.33,10,3,10,0.00
2013-11-25,45.0,33.1,27.0,28.0,20.6,14.0,78,60,47,30.34,30.18,13,4,13,0.00
2013-11-26,41.6,30.6,19.6,27.4,19.5,9.1,83,65,39,30.42,30.18,19,6,19,0.00
2013-11-27,38.2,26.8,15.1,17.7,11.9,7.8,74,55,35,30.46,30.16,15,4,15,0.00
2013-11-28,51.1,33.7,23.4,24.9,18.3,13.2,75,55,33,30.52,30.15,10,4,14,0.00
2013-11-29,52.4,35.2,22.7,30.1,22.6,13.3,77,61,41,30.52,30.26,15,4,15,0.00
2013-11-30,59.9,42.0,32.2,37.4,29.2,23.7,75,61,42,30.26,30.10,10,2,10,0.00
2013-12-1,67.9,43.4,29.2,40.3,29.8,21.9,80,61,35,30.17,29.91,8,2,8,0.00
2013-12-2,61.6,45.8,37.3,41.3,36.0,27.8,87,70,44,29.91,29.64,15,4,15,0.00
2013-12-3,59.0,46.2,38.9,45.3,39.8,35.0,90,79,56,29.67,29.56,14,3,14,0.00
2013-12-4,42.3,32.8,20.5,38.7,28.6,12.2,90,84,69,30.08,29.59,20,7,20,0.01
2013-12-5,21.2,18.6,14.4,13.6,8.5,5.8,78,65,58,30.42,30.06,19,8,20,0.00
2013-12-6,28.1,16.8,10.1,6.5,1.2,-1.5,64,51,32,30.67,30.40,12,5,12,0.00
2013-12-7,29.3,15.9,3.6,5.8,0.6,-4.9,68,52,32,30.74,30.40,15,4,15,0.00
2013-12-8,23.4,18.6,13.1,18.0,12.8,3.2,86,78,52,30.41,30.01,14,5,14,0.00
2013-12-9,23.2,9.7,-0.2,9.3,0.5,-9.6,85,67,42,30.43,30.17,11,3,11,0.00
2013-12-10,40.0,23.9,5.6,18.5,10.9,-1.7,75,59,35,30.34,30.19,12,4,12,0.01
2013-12-11,32.4,21.3,6.8,20.5,10.6,-3.0,81,64,37,30.65,30.24,13,4,13,0.00
2013-12-12,48.1,29.7,7.2,23.7,15.6,-1.5,74,57,38,30.57,30.17,14,4,14,0.00
2013-12-13,35.8,32.0,26.5,32.2,27.7,20.4,91,84,69,30.18,29.91,12,3,13,0.01
2013-12-14,32.9,25.3,18.4,30.6,20.9,13.7,91,83,77,30.24,29.96,13,0,13,0.00
2013-12-15,41.0,30.2,18.5,30.5,23.9,14.1,87,78,62,30.22,29.98,9,1,9,0.00
2013-12-16,47.7,30.3,24.1,38.1,25.6,21.4,91,83,59,30.19,29.98,8,2,8,0.00
2013-12-17,52.2,37.7,25.6,33.8,26.5,20.9,85,67,34,30.31,30.19,15,5,15,0.00
2013-12-18,63.5,52.5,32.8,38.0,34.2,24.5,72,51,36,30.05,29.82,20,9,20,0.05
2013-12-19,52.7,48.8,45.0,44.4,38.8,37.2,77,68,62,29.83,29.79,13,4,13,0.00
2013-12-20,25.6,22.8,21.4,22.5,19.4,18.4,89,87,85,29.97,29.91,15,5,15,0.00
2013-12-21,26.8,24.9,22.3,24.0,21.3,18.5,89,86,84,29.95,29.69,16,4,16,0.00
2013-12-22,30.8,22.1,10.1,22.0,16.8,4.2,90,80,62,30.37,29.77,13,6,13,0.00
2013-12-23,27.0,8.0,-6.7,8.8,-1.5,-15.5,79,66,43,30.61,30.37,12,3,12,0.00
2013-12-24,27.4,10.4,-9.9,24.8,3.5,-17.7,90,73,58,30.59,30.21,17,4,17,0.00
2013-12-25,44.8,31.2,20.0,29.0,24.3,13.5,90,76,53,30.34,30.22,13,5,13,0.00
2013-12-26,50.8,31.7,16.6,29.9,21.8,10.2,88,68,45,30.33,30.17,17,4,17,0.00
2013-12-27,54.4,38.9,22.3,33.8,27.2,16.2,81,64,44,30.33,30.17,10,3,10,0.00
2013-12-28,57.4,43.1,33.5,32.7,30.0,27.3,81,62,34,30.17,29.89,16,5,16,0.00
2013-12-29,35.5,17.4,11.7,28.5,5.9,-1.1,79,61,39,30.34,29.99,19,8,19,0.00
2013-12-30,29.2,18.6,9.7,17.4,5.1,-2.6,75,55,42,30.31,30.15,13,4,13,0.00
2013-12-31,51.5,27.4,14.6,28.6,17.6,8.7,81,67,40,30.31,30.03,14,4,17,0.00
2014-1-1,20.9,15.5,7.0,13.8,9.7,0.5,84,78,71,30.33,30.07,16,6,16,0.00
2014-1-2,26.6,9.1,-2.3,8.7,-2.9,-11.2,77,59,35,30.48,30.31,11,2,11,0.00